User: anonymous   Login
Location: Charleston
(38.3500°N, 81.6330°W)
Time: 11:29:27
(UTC-04:00)
Language:

Cosmos 1812 Rocket - Orbit

View from above orbital plane
View from above orbital plane
View from above satellite
View from above satellite

Ground track
Ground track

The orbit data is extracted from the following two-line orbital elements,

1 17296U 87003B   16275.49996778  .00000151  00000-0  15619-4 0  9996
2 17296  82.5270 266.7527 0018989 358.5442   1.5714 14.83143791604775
Epoch (UTC): 01 October 2016 11:59:57
Eccentricity: 0.0018989
inclination: 82.5270°
perigee height: 606 km
apogee height: 633 km
right ascension of ascending node: 266.7527°
argument of perigee: 358.5442°
revolutions per day: 14.83143791
mean anomaly at epoch: 1.5714°
orbit number at epoch: 60477

The dashed part of the orbit path shows where the satellite is in the earth's shadow,  

DLR